TimePDT,TemperatureF,Dew PointF,Humidity,Sea Level PressureIn,VisibilityMPH,Wind Direction,Wind SpeedMPH,Gust SpeedMPH,PrecipitationIn,Events,Conditions,WindDirDegrees,DateUTC
12:53 AM,57.0,53.1,87,30.05,9.0,Calm,Calm,-,N/A,,Overcast,0,2011-10-09 07:53:00
1:53 AM,57.0,53.1,87,30.06,8.0,Calm,Calm,-,N/A,,Overcast,0,2011-10-09 08:53:00
2:53 AM,55.9,53.1,90,30.04,8.0,Calm,Calm,-,N/A,,Overcast,0,2011-10-09 09:53:00
3:53 AM,55.9,53.1,90,30.04,7.0,West,3.5,-,N/A,,Overcast,260,2011-10-09 10:53:00
4:53 AM,55.9,53.1,90,30.03,7.0,Calm,Calm,-,N/A,,Overcast,0,2011-10-09 11:53:00
5:22 AM,55.4,53.6,94,30.03,1.8,Calm,Calm,-,N/A,,Overcast,0,2011-10-09 12:22:00
5:30 AM,55.4,53.6,94,30.03,1.0,ENE,5.8,-,N/A,,Mist,60,2011-10-09 12:30:00
5:38 AM,55.4,53.6,94,30.03,0.8,NE,5.8,-,N/A,,Mist,40,2011-10-09 12:38:00
6:49 AM,55.4,51.8,88,30.03,1.5,East,5.8,-,N/A,,Overcast,90,2011-10-09 13:49:00
6:55 AM,55.4,53.6,94,30.03,3.0,SE,5.8,-,N/A,,Overcast,130,2011-10-09 13:55:00
7:49 AM,55.4,53.6,94,30.04,1.8,WSW,3.5,-,N/A,,Overcast,250,2011-10-09 14:49:00
7:53 AM,55.0,53.1,93,30.04,1.0,WSW,4.6,-,N/A,,Overcast,250,2011-10-09 14:53:00
8:00 AM,55.4,53.6,94,30.04,0.8,West,4.6,-,N/A,,Overcast,260,2011-10-09 15:00:00
8:08 AM,53.6,53.6,100,30.04,1.5,West,4.6,-,N/A,,Overcast,260,2011-10-09 15:08:00
8:16 AM,55.4,53.6,94,30.04,3.0,Calm,Calm,-,N/A,,Overcast,0,2011-10-09 15:16:00
8:32 AM,55.4,53.6,94,30.05,2.0,Calm,Calm,-,N/A,,Overcast,0,2011-10-09 15:32:00
8:53 AM,55.0,53.1,93,30.06,3.0,Calm,Calm,-,N/A,,Overcast,0,2011-10-09 15:53:00
9:53 AM,55.9,53.1,90,30.06,6.0,SE,3.5,-,N/A,,Overcast,130,2011-10-09 16:53:00
10:46 AM,59.0,53.6,82,30.04,8.0,Variable,3.5,-,N/A,,Overcast,0,2011-10-09 17:46:00
10:53 AM,59.0,53.1,81,30.04,9.0,East,4.6,-,N/A,,Overcast,90,2011-10-09 17:53:00
11:22 AM,62.6,53.6,72,30.03,10.0,ESE,3.5,-,N/A,,Partly Cloudy,110,2011-10-09 18:22:00
11:53 AM,64.9,53.1,65,30.02,10.0,Calm,Calm,-,N/A,,Clear,0,2011-10-09 18:53:00
12:53 PM,70.0,55.9,61,29.99,10.0,Variable,4.6,-,N/A,,Clear,0,2011-10-09 19:53:00
1:53 PM,73.9,55.9,53,29.95,10.0,South,5.8,-,N/A,,Clear,170,2011-10-09 20:53:00
2:53 PM,73.0,55.0,53,29.94,10.0,SW,6.9,-,N/A,,Clear,230,2011-10-09 21:53:00
3:53 PM,69.1,54.0,58,29.95,10.0,SW,6.9,-,N/A,,Clear,230,2011-10-09 22:53:00
4:53 PM,71.1,51.1,49,29.94,10.0,WSW,4.6,-,N/A,,Clear,250,2011-10-09 23:53:00
5:53 PM,62.1,54.0,75,29.94,10.0,SSE,6.9,-,N/A,,Clear,160,2011-10-10 00:53:00
6:35 PM,57.2,55.4,94,29.95,9.0,SE,5.8,-,N/A,,Partly Cloudy,130,2011-10-10 01:35:00
6:53 PM,57.9,54.0,87,29.96,9.0,SE,4.6,-,N/A,,Mostly Cloudy,130,2011-10-10 01:53:00
7:08 PM,57.2,55.4,94,29.96,10.0,East,4.6,-,N/A,,Overcast,100,2011-10-10 02:08:00
7:45 PM,57.2,53.6,88,29.97,10.0,East,3.5,-,N/A,,Scattered Clouds,80,2011-10-10 02:45:00
7:53 PM,57.9,54.0,87,29.97,10.0,ESE,5.8,-,N/A,,Partly Cloudy,110,2011-10-10 02:53:00
8:53 PM,57.9,54.0,87,29.98,10.0,Calm,Calm,-,N/A,,Partly Cloudy,0,2011-10-10 03:53:00
10:53 PM,57.0,53.1,87,29.98,10.0,Calm,Calm,-,N/A,,Clear,0,2011-10-10 05:53:00
11:53 PM,55.9,52.0,87,29.98,10.0,Calm,Calm,-,N/A,,Clear,0,2011-10-10 06:53:00